Date String (YYYY-MM-DD hh:mm:ss) UTC,Instrument flags,Ambient pressure (hPa),Sample flow (lpm),Bypass flow (lpm),Sample temperature (°C),Ambient temperature (°C),ASC tube jacket temperature (°C),LED temperature (°C),Box temperature (°C),Sample RH (%),Span deviation,Mass concentration (μg/m³),Mass concentration (μg/m³),Mass concentration (μg/m³)
DateTimeUTC,F1_M11,P_M11,Q1_M11,Q2_M11,T1_M11,T2_M11,T3_M11,T4_M11,T5_M11,U1_M11,ZSPAN_M11,X0_M11,X2_M11,X1_M11
2022-11-17 12:00:00,,0830.5,5.00,0.00,22.6,22.4,00.0,31.2,24.5,10.0,0000.0,0017.08,0005.36,0004.10
2022-11-17 12:01:00,,0830.4,5.02,0.00,22.5,22.0,00.0,31.3,24.5,10.1,0000.0,0017.61,0005.26,0004.09
2022-11-17 12:02:00,,0830.4,5.00,0.00,22.5,21.8,00.0,31.3,24.4,10.1,0000.0,0018.22,0005.20,0004.08
2022-11-17 12:03:00,,0830.4,4.99,0.00,22.5,21.5,00.0,31.3,24.3,10.2,0000.0,0017.42,0005.13,0004.05
2022-11-17 12:04:00,,0830.4,5.00,0.00,22.5,21.3,00.0,31.4,24.3,10.2,0000.0,0016.82,0005.14,0004.04
2022-11-17 12:05:00,,0830.4,5.00,0.00,22.5,21.2,00.0,31.4,24.2,10.2,0000.0,0015.93,0005.12,0004.04
2022-11-17 12:06:00,,0830.4,5.00,0.00,22.4,21.1,00.0,31.4,24.2,10.2,0000.0,0015.54,0005.13,0004.05
2022-11-17 12:07:00,,0830.4,4.99,0.00,22.4,21.0,00.0,31.4,24.2,10.3,0000.0,0015.82,0005.12,0004.06
2022-11-17 12:08:00,,0830.5,5.00,0.00,22.4,20.9,00.0,31.3,24.1,10.3,0000.0,0015.92,0005.13,0004.08
2022-11-17 12:09:00,,0830.5,5.00,0.00,22.3,20.7,00.0,31.3,24.1,10.4,0000.0,0016.10,0005.13,0004.10
2022-11-17 12:10:00,,0830.5,5.02,0.00,22.4,21.2,00.0,31.3,24.2,10.4,0000.0,0016.21,0005.16,0004.13
2022-11-17 12:11:00,,0830.6,5.00,0.00,22.4,22.1,00.0,31.2,24.4,10.3,0000.0,0015.43,0005.15,0004.16
2022-11-17 12:12:00,,0830.6,5.00,0.00,22.5,22.4,00.0,31.3,24.5,10.3,0000.0,0013.97,0005.13,0004.17
2022-11-17 12:13:00,,0830.6,4.99,0.00,22.5,22.1,00.0,31.3,24.5,10.3,0000.0,0014.09,0005.12,0004.19
2022-11-17 12:14:00,,0830.8,4.99,0.00,22.5,21.8,00.0,31.3,24.3,10.3,0000.0,0013.65,0005.08,0004.21
2022-11-17 12:15:00,,0830.8,5.01,0.00,22.5,21.5,00.0,31.4,24.3,10.3,0000.0,0013.37,0005.07,0004.23
2022-11-17 12:16:00,,0830.8,5.00,0.00,22.5,21.4,00.0,31.4,24.3,10.3,0000.0,0013.27,0005.12,0004.25
2022-11-17 12:17:00,,0830.8,5.00,0.00,22.4,21.2,00.0,31.4,24.3,10.4,0000.0,0013.09,0005.12,0004.27
2022-11-17 12:18:00,,0830.8,5.00,0.00,22.4,21.1,00.0,31.4,24.2,10.4,0000.0,0012.64,0005.16,0004.29
2022-11-17 12:19:00,,0830.8,5.00,0.00,22.4,21.0,00.0,31.4,24.2,10.4,0000.0,0012.13,0005.17,0004.30
2022-11-17 12:20:00,,0830.8,5.00,0.00,22.4,21.0,00.0,31.4,24.2,10.4,0000.0,0011.69,0005.17,0004.31
2022-11-17 12:21:00,,0830.9,5.00,0.00,22.4,20.9,00.0,31.3,24.1,10.4,0000.0,0011.55,0005.18,0004.33
2022-11-17 12:22:00,,0830.9,5.01,0.00,22.4,20.9,00.0,31.3,24.1,10.4,0000.0,0011.81,0005.17,0004.34
2022-11-17 12:23:00,,0830.9,5.00,0.00,22.4,21.0,00.0,31.3,24.1,10.4,0000.0,0012.59,0005.16,0004.35
2022-11-17 12:24:00,,0830.9,4.99,0.00,22.4,21.6,00.0,31.3,24.3,10.4,0000.0,0011.94,0005.20,0004.37
2022-11-17 12:25:00,,0831.0,5.00,0.00,22.5,22.5,00.0,31.3,24.5,10.4,0000.0,0011.60,0005.25,0004.38
2022-11-17 12:26:00,,0831.1,5.00,0.00,22.6,22.6,00.0,31.3,24.6,10.3,0000.0,0011.69,0005.31,0004.40
2022-11-17 12:27:00,,0831.0,4.98,0.00,22.6,22.2,00.0,31.4,24.5,10.3,0000.0,0011.78,0005.35,0004.42
2022-11-17 12:28:00,,0831.0,5.00,0.00,22.6,21.9,00.0,31.4,24.5,10.3,0000.0,0011.91,0005.39,0004.44
2022-11-17 12:29:00,,0831.0,5.02,0.00,22.6,21.6,00.0,31.4,24.4,10.3,0000.0,0011.54,0005.41,0004.47
2022-11-17 12:30:00,,0831.0,4.99,0.00,22.6,21.5,00.0,31.4,24.4,10.2,0000.0,0011.31,0005.41,0004.50
2022-11-17 12:31:00,,0831.0,4.99,0.00,22.5,21.3,00.0,31.4,24.4,10.2,0000.0,0011.32,0005.42,0004.51
2022-11-17 12:32:00,,0831.1,5.01,0.00,22.5,21.2,00.0,31.4,24.3,10.2,0000.0,0011.49,0005.39,0004.51
2022-11-17 12:33:00,,0831.2,5.00,0.00,22.5,21.1,00.0,31.4,24.3,10.2,0000.0,0011.68,0005.40,0004.52
2022-11-17 12:34:00,,0831.2,5.00,0.00,22.5,21.0,00.0,31.4,24.3,10.2,0000.0,0011.44,0005.47,0004.52
2022-11-17 12:35:00,,0831.2,5.01,0.00,22.4,20.9,00.0,31.4,24.3,10.2,0000.0,0011.10,0005.48,0004.52
2022-11-17 12:36:00,,0831.2,5.00,0.00,22.4,20.9,00.0,31.4,24.2,10.2,0000.0,0011.05,0005.45,0004.51
2022-11-17 12:37:00,,0831.2,5.00,0.00,22.4,20.8,00.0,31.4,24.2,10.2,0000.0,0011.00,0005.39,0004.50
2022-11-17 12:38:00,,0831.2,5.00,0.00,22.4,20.8,00.0,31.4,24.2,10.2,0000.0,0011.19,0005.33,0004.49
2022-11-17 12:39:00,,0831.2,5.01,0.00,22.4,20.7,00.0,31.4,24.1,10.2,0000.0,0011.44,0005.29,0004.46
2022-11-17 12:40:00,,0831.3,4.99,0.00,22.3,20.7,00.0,31.4,24.1,10.2,-000.3,0011.50,0005.26,0004.44
2022-11-17 12:41:00,,0831.3,5.00,0.00,22.3,20.6,00.0,31.3,24.1,10.3,-000.5,0011.45,0005.23,0004.41
2022-11-17 12:42:00,,0831.4,5.00,0.00,22.3,20.6,00.0,31.3,24.1,10.2,-000.0,0011.50,0005.24,0004.39
2022-11-17 12:43:00,,0831.4,5.00,0.00,22.3,20.5,00.0,31.3,24.0,10.2,0000.0,0011.24,0005.24,0004.37
2022-11-17 12:44:00,,0831.4,5.01,0.00,22.2,20.5,00.0,31.3,24.0,10.3,0000.3,0010.81,0005.20,0004.34
2022-11-17 12:45:00,,0831.4,5.00,0.00,22.2,20.5,00.0,31.3,24.0,10.3,0000.1,0010.45,0005.13,0004.32
2022-11-17 12:46:00,,0831.5,4.99,0.00,22.2,20.5,00.0,31.2,23.9,10.3,-000.5,0010.37,0005.10,0004.30
2022-11-17 12:47:00,,0831.4,5.00,0.00,22.2,21.2,00.0,31.2,24.0,10.3,-000.2,0010.56,0005.07,0004.27
2022-11-17 12:48:00,,0831.5,5.01,0.00,22.3,22.1,00.0,31.1,24.2,10.2,-000.2,0010.63,0005.04,0004.24
2022-11-17 12:49:00,,0831.5,4.99,0.00,22.4,22.2,00.0,31.2,24.3,10.1,-000.1,0010.38,0005.03,0004.21
2022-11-17 12:50:00,,0831.5,5.00,0.00,22.4,21.9,00.0,31.2,24.3,10.2,-001.0,0010.12,0004.98,0004.17
2022-11-17 12:51:00,,0831.5,5.01,0.00,22.4,21.6,00.0,31.2,24.3,10.2,0000.0,0010.43,0004.97,0004.13
2022-11-17 12:52:00,,0831.5,4.99,0.00,22.4,21.4,00.0,31.2,24.2,10.2,0000.0,0010.32,0004.98,0004.12
2022-11-17 12:53:00,,0831.5,5.00,0.00,22.4,21.1,00.0,31.3,24.2,10.2,0000.0,0011.20,0004.93,0004.10
2022-11-17 12:54:00,,0831.5,4.99,0.00,22.3,21.0,00.0,31.3,24.2,10.3,0000.0,0011.45,0004.87,0004.08
2022-11-17 12:55:00,,0831.5,5.00,0.00,22.3,20.9,00.0,31.3,24.1,10.3,0000.0,0011.83,0004.86,0004.06
2022-11-17 12:56:00,,0831.6,5.00,0.00,22.3,20.8,00.0,31.3,24.1,10.3,0000.0,0012.91,0004.84,0004.05
2022-11-17 12:57:00,,0831.7,5.00,0.00,22.3,20.8,00.0,31.2,24.1,10.4,0000.0,0013.72,0004.82,0004.05
2022-11-17 12:58:00,,0831.7,5.00,0.00,22.3,20.7,00.0,31.2,24.0,10.4,0000.0,0014.15,0004.81,0004.04
2022-11-17 12:59:00,,0831.7,5.00,0.00,22.2,20.7,00.0,31.2,24.0,10.4,0000.0,0013.96,0004.81,0004.03
